Location: Bannatyne
(13.0833°N, 59.5333°W)
Time: 14:38:24
(UTC+00:00)

Explorer 7 - Pass Details

Date: 31 January 2020
Orbit: 485 x 679 km, 50.3° (Epoch: 28 February)

Event Time Altitude Azimuth Distance (km) Brightness Sun altitude
Rises 22:47:41 0° 250° (WSW) 2,773 12.5 -12.3°
Reaches altitude 10° 22:50:42 10° 272° (W) 1,831 10.8 -13.0°
Maximum altitude 22:53:20 16° 311° (NW) 1,437 9.4 -13.6°
Drops below altitude 10° 22:55:54 10° 352° (N) 1,759 9.3 -14.2°
Enters shadow 22:58:03 - 10° (N) 2,382 9.8 -14.8°
Sets 22:58:44 0° 14° (NNE) 2,611 - -14.9°
